Time,TemperatureF,DewpointF,PressureIn,WindDirection,WindDirectionDegrees,WindSpeedMPH,WindSpeedGustMPH,Humidity,HourlyPrecipIn,Conditions,Clouds,dailyrainin,SoftwareType,DateUTC
2013-03-26 12:43:00,56.5,31.2,17.72,NNW,328,0.0,0.0,38,0.00,,,0.00,WeatherTracker,2013-03-26 19:43:00,
2013-03-26 12:46:00,56.7,31.3,17.72,NNW,328,0.0,0.0,38,0.00,,,0.00,WeatherTracker,2013-03-26 19:46:00,
2013-03-26 12:51:00,56.8,30.8,17.72,NNW,328,0.0,0.0,37,0.00,,,0.00,WeatherTracker,2013-03-26 19:51:00,
2013-03-26 12:56:00,57.2,31.2,17.72,NNW,328,0.0,0.0,37,0.00,,,0.00,WeatherTracker,2013-03-26 19:56:00,
2013-03-26 13:01:00,57.6,30.8,17.72,WNW,302,0.0,0.0,36,0.00,,,0.00,WeatherTracker,2013-03-26 20:01:00,
2013-03-26 13:06:00,57.9,31.8,17.72,WNW,302,0.0,0.0,37,0.00,,,0.00,WeatherTracker,2013-03-26 20:06:00,
2013-03-26 13:12:00,58.3,31.4,17.72,WNW,302,0.0,0.0,36,0.00,,,0.00,WeatherTracker,2013-03-26 20:12:00,
2013-03-26 13:17:00,58.8,31.9,17.72,North,353,0.0,0.0,36,0.00,,,0.00,WeatherTracker,2013-03-26 20:17:00,
2013-03-26 13:22:00,59.9,33.8,17.72,North,353,0.0,0.0,35,0.00,,,0.00,WeatherTracker,2013-03-26 20:22:00,
2013-03-26 13:27:00,61.2,31.1,17.72,North,353,0.0,0.0,32,0.00,,,0.00,WeatherTracker,2013-03-26 20:27:00,
2013-03-26 13:32:00,61.5,30.6,17.72,North,353,0.0,0.0,31,0.00,,,0.00,WeatherTracker,2013-03-26 20:32:00,
2013-03-26 13:37:00,61.5,32.1,17.72,North,353,0.0,0.0,33,0.00,,,0.00,WeatherTracker,2013-03-26 20:37:00,
2013-03-26 13:42:00,64.8,31.8,17.72,North,353,0.0,0.0,29,0.00,,,0.00,WeatherTracker,2013-03-26 20:42:00,
2013-03-26 13:47:00,63.0,30.2,17.72,North,353,0.0,0.0,29,0.00,,,0.00,WeatherTracker,2013-03-26 20:47:00,
2013-03-26 13:52:00,63.1,30.4,17.72,North,353,0.0,0.0,29,0.00,,,0.00,WeatherTracker,2013-03-26 20:52:00,
2013-03-26 13:57:00,64.0,30.3,17.72,North,9,0.0,0.0,28,0.00,,,0.00,WeatherTracker,2013-03-26 20:57:00,
2013-03-26 14:02:00,62.6,29.0,17.72,North,9,0.0,0.0,28,0.00,,,0.00,WeatherTracker,2013-03-26 21:02:00,
2013-03-26 14:07:00,61.3,29.6,17.72,ENE,72,0.0,0.0,30,0.00,,,0.00,WeatherTracker,2013-03-26 21:07:00,
2013-03-26 14:12:00,61.2,29.5,17.72,North,0,0.0,0.0,30,0.00,,,0.00,WeatherTracker,2013-03-26 21:12:00,
2013-03-26 14:17:00,61.2,28.7,17.72,North,0,0.0,0.0,29,0.00,,,0.00,WeatherTracker,2013-03-26 21:17:00,
2013-03-26 14:22:00,61.3,28.8,17.72,North,0,0.0,0.0,29,0.00,,,0.00,WeatherTracker,2013-03-26 21:22:00,
2013-03-26 14:27:00,61.9,29.3,17.72,North,0,0.0,0.0,29,0.00,,,0.00,WeatherTracker,2013-03-26 21:27:00,
2013-03-26 14:33:00,61.7,29.1,17.72,North,0,0.0,0.0,29,0.00,,,0.00,WeatherTracker,2013-03-26 21:33:00,
2013-03-26 14:38:00,61.5,29.0,17.72,North,0,0.0,0.0,29,0.00,,,0.00,WeatherTracker,2013-03-26 21:38:00,
2013-03-26 14:43:00,61.5,29.8,17.72,North,0,0.0,2.0,30,0.00,,,0.00,WeatherTracker,2013-03-26 21:43:00,
2013-03-26 14:48:00,61.7,29.1,17.72,North,0,0.0,0.0,29,0.00,,,0.00,WeatherTracker,2013-03-26 21:48:00,
2013-03-26 14:53:00,62.2,29.6,17.72,North,0,0.0,0.0,29,0.00,,,0.00,WeatherTracker,2013-03-26 21:53:00,
2013-03-26 14:58:00,62.4,30.6,17.72,South,171,0.0,0.0,30,0.00,,,0.00,WeatherTracker,2013-03-26 21:58:00,
2013-03-26 15:03:00,62.6,30.7,17.72,South,171,0.0,0.0,30,0.00,,,0.00,WeatherTracker,2013-03-26 22:03:00,
2013-03-26 15:08:00,62.6,29.0,17.72,SSE,151,3.0,4.0,28,0.00,,,0.00,WeatherTracker,2013-03-26 22:08:00,
2013-03-26 15:13:00,62.4,29.7,17.72,East,91,3.0,3.0,29,0.00,,,0.00,WeatherTracker,2013-03-26 22:13:00,
2013-03-26 15:18:00,62.2,28.7,17.72,SE,133,3.0,3.0,28,0.00,,,0.00,WeatherTracker,2013-03-26 22:18:00,
2013-03-26 15:23:00,62.4,29.7,17.72,East,94,0.0,0.0,29,0.00,,,0.00,WeatherTracker,2013-03-26 22:23:00,
2013-03-26 15:28:00,62.2,29.6,17.72,SE,143,4.0,5.0,29,0.00,,,0.00,WeatherTracker,2013-03-26 22:28:00,
2013-03-26 15:33:00,62.2,29.6,17.72,SSW,207,0.0,0.0,29,0.00,,,0.00,WeatherTracker,2013-03-26 22:33:00,
2013-03-26 15:38:00,62.2,29.6,17.72,SE,142,0.0,3.0,29,0.00,,,0.00,WeatherTracker,2013-03-26 22:38:00,
2013-03-26 15:44:00,62.1,27.7,17.72,SSE,150,3.0,4.0,27,0.00,,,0.00,WeatherTracker,2013-03-26 22:44:00,
2013-03-26 15:49:00,61.9,27.5,17.72,ESE,120,4.0,0.0,27,0.00,,,0.00,WeatherTracker,2013-03-26 22:49:00,
2013-03-26 15:54:00,61.9,28.4,17.72,SE,146,4.0,4.0,28,0.00,,,0.00,WeatherTracker,2013-03-26 22:54:00,
2013-03-26 15:59:00,61.9,28.4,17.72,SW,217,2.0,3.0,28,0.00,,,0.00,WeatherTracker,2013-03-26 22:59:00,
2013-03-26 16:04:00,61.7,28.3,17.72,ENE,64,0.0,3.0,28,0.00,,,0.00,WeatherTracker,2013-03-26 23:04:00,
2013-03-26 16:09:00,61.3,27.1,17.72,ENE,72,2.0,3.0,27,0.00,,,0.00,WeatherTracker,2013-03-26 23:09:00,
2013-03-26 16:14:00,61.3,28.0,17.72,ESE,105,0.0,0.0,28,0.00,,,0.00,WeatherTracker,2013-03-26 23:14:00,
2013-03-26 16:19:00,61.0,26.8,17.72,ESE,112,0.0,0.0,27,0.00,,,0.00,WeatherTracker,2013-03-26 23:19:00,
2013-03-26 16:24:00,61.0,27.6,17.72,SSE,150,0.0,3.0,28,0.00,,,0.00,WeatherTracker,2013-03-26 23:24:00,
2013-03-26 16:29:00,61.0,26.8,17.72,WSW,247,0.0,3.0,27,0.00,,,0.00,WeatherTracker,2013-03-26 23:29:00,
2013-03-26 16:34:00,60.8,26.6,17.72,WSW,247,0.0,0.0,27,0.00,,,0.00,WeatherTracker,2013-03-26 23:34:00,
2013-03-26 16:39:00,60.6,27.3,17.72,WNW,298,0.0,0.0,28,0.00,,,0.00,WeatherTracker,2013-03-26 23:39:00,
2013-03-26 16:44:00,60.6,27.3,17.72,WNW,298,0.0,0.0,28,0.00,,,0.00,WeatherTracker,2013-03-26 23:44:00,
2013-03-26 16:49:00,60.4,27.2,17.72,WNW,298,0.0,0.0,28,0.00,,,0.00,WeatherTracker,2013-03-26 23:49:00,
2013-03-26 16:54:00,60.1,26.0,17.72,West,261,0.0,0.0,27,0.00,,,0.00,WeatherTracker,2013-03-26 23:54:00,
2013-03-26 17:00:00,60.1,26.0,17.72,West,261,0.0,0.0,27,0.00,,,0.00,WeatherTracker,2013-03-27 00:00:00,
2013-03-26 17:05:00,59.9,24.9,17.72,NW,307,0.0,0.0,26,0.00,,,0.00,WeatherTracker,2013-03-27 00:05:00,
2013-03-26 17:10:00,59.7,24.8,17.72,West,264,0.0,3.0,26,0.00,,,0.00,WeatherTracker,2013-03-27 00:10:00,
2013-03-26 17:15:00,59.5,24.6,17.72,WNW,300,3.0,0.0,26,0.00,,,0.00,WeatherTracker,2013-03-27 00:15:00,
2013-03-26 17:20:00,59.4,25.4,17.72,West,277,0.0,2.0,27,0.00,,,0.00,WeatherTracker,2013-03-27 00:20:00,
2013-03-26 17:25:00,59.2,26.1,17.72,West,277,0.0,0.0,28,0.00,,,0.00,WeatherTracker,2013-03-27 00:25:00,
2013-03-26 17:30:00,58.8,26.6,17.72,West,268,2.0,4.0,29,0.00,,,0.00,WeatherTracker,2013-03-27 00:30:00,
2013-03-26 17:35:00,59.0,25.9,17.72,West,268,3.0,3.0,28,0.00,,,0.00,WeatherTracker,2013-03-27 00:35:00,
2013-03-26 17:40:00,59.5,25.5,17.72,West,268,0.0,0.0,27,0.00,,,0.00,WeatherTracker,2013-03-27 00:40:00,
2013-03-26 17:45:00,59.7,25.7,17.72,West,268,0.0,4.0,27,0.00,,,0.00,WeatherTracker,2013-03-27 00:45:00,
2013-03-26 17:50:00,59.4,24.5,17.72,West,268,3.0,4.0,26,0.00,,,0.00,WeatherTracker,2013-03-27 00:50:00,
2013-03-26 17:55:00,59.2,24.3,17.72,West,268,3.0,3.0,26,0.00,,,0.00,WeatherTracker,2013-03-27 00:55:00,
2013-03-26 18:00:00,58.8,24.9,17.72,West,268,2.0,3.0,27,0.00,,,0.00,WeatherTracker,2013-03-27 01:00:00,
2013-03-26 18:05:00,58.6,24.8,17.72,West,268,2.0,0.0,27,0.00,,,0.00,WeatherTracker,2013-03-27 01:05:00,
2013-03-26 18:10:00,58.1,24.3,17.72,WSW,246,0.0,0.0,27,0.00,,,0.00,WeatherTracker,2013-03-27 01:10:00,
2013-03-26 18:15:00,57.7,24.0,17.72,WSW,254,0.0,0.0,27,0.00,,,0.00,WeatherTracker,2013-03-27 01:15:00,
2013-03-26 18:20:00,57.4,24.6,17.72,WSW,254,2.0,0.0,28,0.00,,,0.00,WeatherTracker,2013-03-27 01:20:00,
2013-03-26 18:25:00,57.2,24.4,17.72,WSW,254,0.0,3.0,28,0.00,,,0.00,WeatherTracker,2013-03-27 01:25:00,
2013-03-26 18:30:00,57.0,24.2,17.72,West,274,0.0,0.0,28,0.00,,,0.00,WeatherTracker,2013-03-27 01:30:00,
2013-03-26 18:35:00,56.7,23.9,17.72,WSW,251,2.0,2.0,28,0.00,,,0.00,WeatherTracker,2013-03-27 01:35:00,
2013-03-26 18:40:00,56.5,24.6,17.72,WSW,251,0.0,0.0,29,0.00,,,0.00,WeatherTracker,2013-03-27 01:40:00,
2013-03-26 18:45:00,56.3,24.5,17.72,WSW,251,0.0,0.0,29,0.00,,,0.00,WeatherTracker,2013-03-27 01:45:00,
2013-03-26 18:50:00,55.9,24.1,17.72,West,274,0.0,0.0,29,0.00,,,0.00,WeatherTracker,2013-03-27 01:50:00,
2013-03-26 18:55:00,55.9,24.1,17.72,West,274,3.0,3.0,29,0.00,,,0.00,WeatherTracker,2013-03-27 01:55:00,